Temp
60 59 59 58 58 59 60 60 60 60 61 61 61 61 63 66 69 70 70 69 69 70 71 71 71 71 71 69 69 69 69 68 68 67 66 67 68 68 67 66 66 65 64 64 63 63 63 64 64 64 63 62 62 62 61 62 60 59 59 59 59 58 56 57 58 57 56 56 58
59 59 58 56 56 58 59 60 60 60 61 62 62 63 65 68 70 71 71 70 70 71 71 71 72 71 70 68 68 68 69 68 68 67 66 67 68 68 68 67 66 65 65 64 63 63 64 63 64 64 63 62 61 61 62 63 62 60 59 58 60 59 57 57 58 57 56 55 56
59 59 59 58 58 59 59 60 61 62 63 63 64 65 67 69 71 71 71 71 72 72 72 72 72 70 69 68 68 69 69 68 68 67 67 67 67 67 67 67 66 65 65 65 65 64 64 64 63 63 63 63 62 62 62 61 60 60 59 59 60 60 59 60 58 57 56 56 55
59 59 59 59 59 59 59 60 62 64 65 65 66 67 68 70 72 72 72 71 71 72 72 72 72 71 70 69 69 69 68 67 67 67 67 67 67 67 67 67 66 65 65 66 65 65 64 63 64 64 63 63 62 62 62 62 59 60 61 60 61 61 61 61 59 58 57 57 55
59 59 59 59 59 59 60 61 63 65 66 67 67 68 70 72 72 73 72 71 71 71 72 72 73 72 70 69 68 68 68 67 65 66 67 66 66 66 66 66 66 66 66 66 66 65 64 63 64 65 64 63 64 64 64 63 61 61 61 61 61 61 61 61 60 59 58 58 56
59 59 59 59 59 59 60 62 64 66 67 69 68 69 70 71 72 72 71 71 71 71 70 70 71 70 69 69 67 67 67 66 66 66 67 67 66 66 66 66 66 67 67 66 66 65 65 63 65 65 64 63 64 64 63 61 61 61 61 61 61 61 61 61 61 59 58 58 57
59 59 59 59 59 59 60 63 65 67 68 69 69 69 70 71 71 71 71 71 71 70 69 69 70 70 69 69 67 67 66 66 66 66 67 67 66 66 66 66 67 67 67 66 66 66 65 65 65 64 63 62 63 63 62 61 61 62 62 62 62 61 61 62 60 59 58 58 57
59 59 59 59 59 60 60 62 65 67 68 70 70 70 70 71 71 71 70 71 71 70 70 70 71 71 70 69 69 68 67 66 66 66 66 66 65 66 66 67 67 67 67 67 66 66 66 65 65 65 64 63 63 62 61 60 61 61 62 63 62 62 63 63 63 62 60 58 57
59 59 59 59 59 60 60 62 64 66 68 69 70 70 69 70 71 71 70 70 70 71 71 72 71 71 70 70 69 69 68 67 66 66 66 66 66 66 66 67 67 67 67 68 67 66 66 65 65 65 64 64 64 63 62 60 61 61 62 63 62 62 62 63 63 62 60 59 57
58 58 59 59 59 59 60 62 64 66 68 69 70 69 68 66 68 70 71 71 71 71 72 72 71 71 70 70 70 69 69 68 67 67 66 66 66 66 67 67 67 67 67 68 67 67 66 66 66 66 66 65 64 64 63 61 61 61 62 63 63 62 61 62 61 60 60 60 58
58 58 58 58 59 59 60 62 64 66 68 69 70 69 68 66 68 70 71 72 72 71 71 72 71 71 71 70 70 70 70 70 69 68 67 67 66 67 67 68 67 67 67 68 68 67 67 67 66 66 65 65 64 64 63 62 62 62 62 63 63 62 61 60 61 61 61 61 59
58 58 58 59 59 59 60 61 64 66 68 69 70 70 69 69 69 70 71 72 71 71 72 72 72 71 71 71 71 70 70 70 70 69 68 67 67 67 67 67 67 67 67 67 68 68 68 67 66 66 65 64 65 65 64 62 62 62 62 63 62 62 62 62 62 62 62 62 60
58 58 58 59 59 59 60 61 64 66 67 69 70 70 70 69 69 70 71 71 71 71 72 72 72 71 71 71 71 71 71 71 70 70 69 68 67 67 67 67 67 67 67 68 68 68 68 67 66 65 65 64 65 65 64 63 62 62 62 62 62 62 62 62 62 62 62 62 61
58 58 58 59 59 59 60 61 64 66 67 69 70 70 70 69 69 69 71 72 72 72 72 72 72 71 71 72 72 71 71 71 71 70 69 69 68 68 67 68 67 67 68 68 68 68 68 67 67 66 65 64 65 65 64 64 63 63 63 63 62 62 62 63 63 62 61 60 60
58 58 59 59 59 59 60 61 64 66 67 68 70 70 70 70 69 69 70 72 72 72 72 72 72 71 71 71 71 71 71 71 71 70 70 69 69 68 68 68 68 68 68 68 68 68 67 67 67 66 66 65 65 65 64 64 64 64 64 63 63 63 63 63 62 62 60 59 58
58 59 59 59 59 60 61 62 64 66 67 68 69 70 70 70 69 69 70 72 72 72 72 72 72 72 71 70 71 71 71 71 71 70 70 70 69 69 69 69 68 68 68 68 68 68 68 67 67 67 66 66 65 65 65 64 64 64 64 63 63 63 63 62 62 61 60 59 58
59 59 60 60 60 61 62 63 65 66 67 68 69 70 70 70 70 69 69 70 72 72 72 72 72 72 71 70 70 70 71 71 70 70 70 70 70 69 69 69 69 69 68 68 68 68 68 67 67 67 67 66 66 66 65 65 64 64 64 63 63 63 63 62 62 62 61 60 59
60 60 60 61 61 62 62 63 65 66 67 68 69 70 70 70 70 70 69 69 71 72 71 71 72 72 71 70 70 70 70 71 70 70 70 70 70 70 70 69 69 69 69 69 69 68 68 68 67 67 67 67 66 66 66 65 65 65 64 64 64 64 63 63 63 63 62 61 60
61 61 62 62 62 63 63 64 65 66 67 69 70 70 71 70 70 70 70 70 70 71 71 71 71 71 71 70 71 70 69 71 70 70 70 71 70 70 70 70 70 70 70 70 69 69 69 68 68 67 67 67 66 66 66 66 65 65 65 64 64 64 64 64 63 63 63 63 61
64 63 63 63 64 64 64 65 66 67 68 69 70 71 71 71 71 71 71 71 70 71 71 71 71 71 71 70 70 70 70 71 71 70 70 71 71 70 70 70 70 70 70 70 70 70 69 69 68 68 67 66 66 66 66 66 65 65 65 65 65 64 64 64 64 64 64 63 61
66 65 65 65 65 65 66 66 67 68 69 70 70 71 71 71 71 71 71 71 70 71 71 71 71 71 70 70 70 70 70 70 71 71 70 70 70 70 70 70 70 70 70 70 70 70 69 69 69 68 68 67 66 66 66 66 66 65 65 66 65 65 65 65 65 64 64 63 61
67 67 67 66 66 66 67 67 68 68 69 70 71 71 72 72 72 71 71 71 70 70 70 70 70 71 71 70 70 70 70 70 71 71 71 71 70 70 70 70 70 70 70 70 70 70 69 69 69 69 68 67 67 66 66 66 66 66 66 65 65 65 65 65 65 64 63 63 62
69 69 68 68 67 67 66 67 68 69 69 70 71 71 72 72 72 72 71 71 70 70 70 70 70 70 71 71 71 70 70 70 70 70 70 70 70 70 70 70 70 70 70 70 70 70 70 69 69 69 69 68 68 67 67 66 66 66 66 66 65 65 65 65 65 65 64 63 63
69 69 69 69 68 68 68 68 69 69 69 70 71 71 72 72 72 72 71 71 70 70 70 71 70 70 70 71 71 71 70 70 70 70 70 70 70 70 70 70 70 70 70 69 67 66 66 68 69 69 69 69 68 68 68 67 67 67 66 66 65 65 65 65 65 64 64 64 63
69 69 69 69 69 69 69 69 69 69 70 70 71 71 72 72 72 72 72 71 71 71 71 71 71 70 70 70 71 71 71 70 70 69 69 69 69 69 70 70 70 69 68 66 60 57 57 60 64 67 70 70 69 68 67 67 66 66 66 65 65 65 64 64 63 63 63 63 63
69 69 69 70 70 69 69 69 69 70 70 71 71 71 72 72 72 72 72 71 71 71 71 71 71 70 69 70 71 71 71 71 70 70 69 69 69 69 69 70 70 69 67 62 57 53 53 54 56 60 65 70 70 69 67 66 65 65 64 64 63 62 61 62 62 62 61 60 60
69 69 69 70 70 70 70 70 70 70 70 71 71 71 71 72 72 72 71 71 71 71 71 71 71 69 67 70 70 70 70 70 70 70 70 70 69 69 69 70 70 69 65 59 54 52 51 51 52 54 59 66 68 68 67 66 64 62 61 61 60 59 59 59 60 60 60 60 60
68 69 69 69 69 69 70 70 70 70 71 71 71 71 71 71 71 71 71 71 71 71 72 72 71 70 69 70 70 70 70 70 70 70 70 70 70 69 70 71 70 67 63 56 52 51 50 51 52 52 54 58 63 64 63 63 62 61 61 60 60 60 59 59 59 59 59 59 60
68 69 69 68 69 69 69 70 70 70 71 71 71 71 71 70 70 70 70 70 70 70 70 71 71 71 70 69 70 70 70 70 70 70 70 70 70 70 70 70 70 66 60 52 49 48 47 48 48 48 50 53 61 65 66 66 66 66 65 64 63 62 60 60 60 59 58 57 57
68 68 68 68 68 69 69 69 70 70 70 71 71 70 70 70 70 69 69 69 70 70 70 70 69 69 69 69 69 70 70 69 70 70 70 70 69 70 70 69 70 67 59 48 46 45 44 44 44 44 44 45 53 61 67 69 68 67 66 65 63 60 58 57 57 56 55 54 53
69 68 68 68 68 69 69 69 70 70 70 70 70 70 70 69 69 69 69 69 69 68 67 67 68 69 69 68 68 68 69 69 70 70 70 70 68 68 69 69 70 65 56 44 43 42 42 41 40 40 40 40 46 55 63 67 68 67 65 63 60 57 55 55 53 50 48 48 49
69 68 68 68 68 69 69 69 69 70 70 70 69 69 69 69 69 69 68 68 68 67 66 66 67 68 67 67 67 67 68 69 69 70 70 70 70 69 69 68 67 58 48 40 39 39 39 39 39 38 38 37 42 49 56 61 64 63 61 57 52 48 46 46 44 42 42 43 44
69 68 68 68 68 69 69 69 69 69 69 69 69 69 69 69 69 69 68 68 67 67 67 66 67 67 66 66 66 66 66 67 69 68 68 68 68 66 64 62 59 50 41 39 39 38 38 38 38 38 37 36 41 47 53 57 59 57 53 47 43 41 40 39 39 39 39 39 40
69 69 68 68 68 69 69 69 69 69 69 69 69 69 69 69 69 69 69 68 67 67 67 66 66 66 66 66 65 65 66 66 67 67 65 62 61 59 57 55 50 43 39 39 38 38 38 38 38 38 37 36 41 47 52 54 51 48 44 40 39 38 38 37 37 37 37 38 38
69 69 68 68 69 69 69 69 69 69 69 69 69 69 69 69 69 69 68 66 66 66 67 67 66 66 66 65 64 63 61 59 59 58 57 56 55 52 48 44 41 39 38 38 38 38 38 38 38 38 37 36 43 48 51 48 44 41 39 38 37 36 36 36 36 36 36 36 36
69 69 69 69 69 69 69 69 69 69 69 69 69 69 69 68 68 68 67 64 65 66 66 66 66 65 65 63 60 55 50 50 50 49 48 47 46 44 41 39 39 38 37 38 38 38 38 38 38 37 38 40 46 48 46 42 40 38 37 37 36 35 35 35 35 35 35 35 36
70 69 69 69 69 69 69 69 69 69 69 69 68 68 69 69 68 68 67 65 66 66 66 66 65 63 61 57 51 46 43 43 43 43 42 42 41 41 40 39 38 37 37 37 38 38 38 38 38 38 40 44 47 46 42 40 38 37 36 35 34 34 34 34 34 34 34 34 34
71 70 69 69 69 69 69 69 69 69 69 69 68 68 68 69 69 68 67 65 66 67 67 66 63 59 54 48 43 41 40 39 39 39 39 39 39 38 38 37 36 36 36 37 38 38 39 39 39 40 42 45 45 43 40 39 38 36 34 33 33 33 33 33 33 33 33 34 34
71 71 70 70 69 69 69 69 69 69 69 69 69 68 68 69 69 68 67 65 66 65 64 61 57 52 47 43 41 40 38 37 37 36 36 36 36 36 36 35 36 36 36 37 38 39 39 40 40 42 43 44 43 42 40 38 36 35 33 33 32 32 32 32 32 32 32 33 34
72 71 71 70 70 70 70 69 69 69 69 69 69 69 69 68 68 67 65 63 61 59 56 52 48 45 43 41 40 38 36 35 35 35 35 35 35 35 35 35 35 35 36 37 38 39 40 41 42 42 43 42 42 40 39 37 35 34 33 32 32 31 31 31 31 31 31 32 33
72 72 71 70 70 70 70 70 70 70 70 70 70 69 68 67 64 63 61 58 55 52 48 45 43 41 40 39 37 36 34 34 34 34 34 34 34 34 35 34 34 35 35 36 37 39 40 41 42 42 42 42 41 40 38 36 34 33 32 32 31 31 31 30 31 31 31 31 31
MSLP
1006.02 1006.30 1006.58 1006.82 1007.02 1007.14 1007.22 1007.22 1007.34 1007.54 1007.78 1008.10 1008.38 1008.62 1008.70 1008.58 1008.34 1008.38 1008.74 1009.22 1009.58 1009.66 1009.66 1009.82 1010.38 1010.62 1010.66 1010.74 1010.78 1010.90 1011.02 1011.22 1011.38 1011.58 1011.74 1011.90 1012.06 1012.22 1012.34 1012.50 1012.70 1012.90 1013.06 1013.18 1013.30 1013.46 1013.58 1013.70 1013.82 1014.02 1014.22 1014.34 1014.50 1014.66 1014.78 1014.90 1015.06 1015.30 1015.46 1015.58 1015.74 1015.90 1016.06 1016.22 1016.34 1016.46 1016.58 1016.66 1016.66
1005.82 1006.06 1006.34 1006.70 1006.94 1007.10 1007.22 1007.34 1007.50 1007.74 1008.02 1008.30 1008.54 1008.78 1008.78 1008.66 1008.34 1008.34 1008.62 1008.98 1009.34 1009.50 1009.50 1009.62 1009.94 1010.26 1010.46 1010.62 1010.66 1010.74 1010.86 1011.06 1011.26 1011.50 1011.62 1011.78 1011.94 1012.06 1012.26 1012.46 1012.62 1012.78 1012.94 1013.06 1013.26 1013.42 1013.54 1013.66 1013.82 1013.98 1014.18 1014.38 1014.50 1014.66 1014.78 1014.78 1014.94 1015.18 1015.34 1015.54 1015.62 1015.78 1015.94 1016.06 1016.14 1016.26 1016.38 1016.50 1016.54
1005.66 1005.94 1006.22 1006.50 1006.78 1007.02 1007.22 1007.38 1007.54 1007.78 1008.02 1008.30 1008.50 1008.66 1008.70 1008.62 1008.38 1008.30 1008.38 1008.62 1008.90 1009.10 1009.30 1009.42 1009.62 1009.94 1010.22 1010.46 1010.50 1010.54 1010.66 1010.90 1011.14 1011.34 1011.54 1011.70 1011.82 1011.98 1012.18 1012.34 1012.54 1012.70 1012.86 1013.02 1013.18 1013.30 1013.46 1013.62 1013.78 1013.94 1014.10 1014.34 1014.50 1014.62 1014.70 1014.78 1014.90 1015.06 1015.26 1015.42 1015.50 1015.62 1015.78 1015.94 1015.98 1016.14 1016.26 1016.34 1016.46
1005.62 1005.78 1006.02 1006.26 1006.58 1006.82 1007.06 1007.30 1007.46 1007.62 1007.86 1008.06 1008.30 1008.46 1008.50 1008.46 1008.34 1008.22 1008.26 1008.38 1008.58 1008.82 1009.06 1009.22 1009.46 1009.74 1010.02 1010.22 1010.38 1010.46 1010.50 1010.70 1010.94 1011.22 1011.38 1011.58 1011.74 1011.90 1012.06 1012.22 1012.46 1012.62 1012.78 1012.90 1013.06 1013.22 1013.34 1013.54 1013.70 1013.86 1014.02 1014.18 1014.34 1014.50 1014.58 1014.70 1014.90 1015.02 1015.10 1015.22 1015.34 1015.50 1015.62 1015.74 1015.86 1016.02 1016.14 1016.22 1016.34
1005.54 1005.74 1005.94 1006.18 1006.46 1006.78 1007.02 1007.22 1007.34 1007.50 1007.66 1007.86 1008.10 1008.26 1008.30 1008.22 1008.22 1008.18 1008.22 1008.38 1008.58 1008.78 1008.94 1009.10 1009.30 1009.58 1009.86 1010.06 1010.26 1010.34 1010.46 1010.62 1010.86 1011.10 1011.30 1011.50 1011.62 1011.78 1011.98 1012.14 1012.34 1012.54 1012.66 1012.78 1012.94 1013.10 1013.26 1013.50 1013.62 1013.78 1013.94 1014.06 1014.22 1014.26 1014.34 1014.54 1014.78 1014.90 1015.02 1015.10 1015.22 1015.34 1015.46 1015.54 1015.66 1015.82 1015.94 1016.06 1016.18
1005.50 1005.70 1005.94 1006.22 1006.50 1006.78 1007.02 1007.22 1007.34 1007.46 1007.58 1007.70 1007.94 1008.06 1008.06 1008.06 1008.02 1008.10 1008.26 1008.46 1008.62 1008.78 1008.98 1009.14 1009.30 1009.54 1009.78 1010.06 1010.22 1010.30 1010.38 1010.58 1010.78 1010.98 1011.18 1011.38 1011.58 1011.78 1011.94 1012.10 1012.22 1012.38 1012.50 1012.70 1012.82 1013.02 1013.22 1013.38 1013.50 1013.66 1013.78 1013.94 1014.06 1014.10 1014.22 1014.46 1014.62 1014.78 1014.90 1015.02 1015.06 1015.18 1015.30 1015.42 1015.50 1015.62 1015.78 1015.94 1016.06
1005.50 1005.70 1005.98 1006.26 1006.50 1006.78 1007.02 1007.22 1007.34 1007.46 1007.54 1007.62 1007.78 1007.82 1007.82 1007.86 1007.94 1008.10 1008.30 1008.50 1008.74 1008.90 1009.06 1009.22 1009.34 1009.50 1009.78 1010.02 1010.22 1010.30 1010.34 1010.50 1010.70 1010.86 1011.06 1011.30 1011.50 1011.66 1011.82 1012.02 1012.14 1012.30 1012.42 1012.58 1012.78 1012.90 1013.06 1013.26 1013.42 1013.58 1013.70 1013.86 1013.94 1014.06 1014.18 1014.34 1014.50 1014.62 1014.78 1014.86 1014.94 1015.06 1015.18 1015.22 1015.34 1015.46 1015.62 1015.74 1015.86
1005.50 1005.70 1005.94 1006.22 1006.50 1006.74 1006.94 1007.14 1007.30 1007.42 1007.50 1007.50 1007.62 1007.66 1007.74 1007.78 1007.94 1008.18 1008.42 1008.62 1008.78 1008.94 1009.06 1009.18 1009.26 1009.42 1009.62 1009.90 1010.10 1010.22 1010.34 1010.46 1010.62 1010.82 1010.98 1011.18 1011.38 1011.62 1011.78 1011.94 1012.06 1012.22 1012.34 1012.42 1012.62 1012.78 1012.94 1013.14 1013.26 1013.38 1013.54 1013.70 1013.86 1013.98 1014.10 1014.22 1014.34 1014.50 1014.62 1014.66 1014.74 1014.82 1014.90 1014.98 1015.10 1015.26 1015.38 1015.50 1015.62
1005.62 1005.78 1005.98 1006.22 1006.50 1006.70 1006.90 1007.14 1007.26 1007.34 1007.34 1007.34 1007.46 1007.58 1007.70 1007.82 1008.02 1008.26 1008.50 1008.62 1008.74 1008.82 1008.90 1009.06 1009.18 1009.34 1009.50 1009.74 1009.94 1010.10 1010.22 1010.38 1010.58 1010.78 1010.90 1011.06 1011.34 1011.50 1011.66 1011.82 1011.98 1012.10 1012.22 1012.34 1012.50 1012.62 1012.78 1012.98 1013.14 1013.26 1013.34 1013.50 1013.62 1013.78 1013.94 1014.06 1014.22 1014.34 1014.42 1014.50 1014.54 1014.66 1014.78 1014.78 1014.90 1015.02 1015.14 1015.30 1015.42
1005.58 1005.82 1006.06 1006.30 1006.50 1006.74 1006.98 1007.18 1007.26 1007.26 1007.22 1007.26 1007.38 1007.50 1007.62 1007.82 1007.98 1008.22 1008.34 1008.42 1008.54 1008.66 1008.78 1008.90 1009.06 1009.22 1009.38 1009.58 1009.78 1009.94 1010.10 1010.30 1010.50 1010.70 1010.86 1011.02 1011.22 1011.38 1011.54 1011.70 1011.86 1012.02 1012.10 1012.22 1012.34 1012.50 1012.70 1012.86 1012.98 1013.06 1013.18 1013.30 1013.46 1013.58 1013.74 1013.94 1014.06 1014.18 1014.22 1014.30 1014.34 1014.50 1014.58 1014.62 1014.74 1014.82 1014.94 1015.06 1015.18
1005.54 1005.78 1006.02 1006.26 1006.50 1006.74 1006.98 1007.22 1007.26 1007.22 1007.18 1007.22 1007.34 1007.42 1007.58 1007.74 1007.86 1007.98 1008.10 1008.18 1008.34 1008.50 1008.62 1008.70 1008.90 1009.06 1009.22 1009.42 1009.58 1009.78 1009.94 1010.18 1010.38 1010.58 1010.78 1010.90 1011.10 1011.26 1011.38 1011.54 1011.70 1011.86 1011.98 1012.10 1012.22 1012.34 1012.50 1012.66 1012.78 1012.90 1013.02 1013.14 1013.26 1013.42 1013.54 1013.74 1013.86 1013.94 1014.02 1014.06 1014.14 1014.26 1014.38 1014.46 1014.50 1014.62 1014.74 1014.82 1014.90
1005.58 1005.78 1006.06 1006.26 1006.50 1006.74 1006.94 1007.10 1007.18 1007.14 1007.10 1007.10 1007.18 1007.30 1007.42 1007.54 1007.62 1007.74 1007.86 1007.94 1008.14 1008.30 1008.38 1008.50 1008.70 1008.90 1009.06 1009.22 1009.42 1009.62 1009.82 1009.98 1010.22 1010.46 1010.66 1010.82 1010.98 1011.14 1011.26 1011.38 1011.50 1011.62 1011.78 1011.94 1012.06 1012.22 1012.34 1012.46 1012.58 1012.74 1012.90 1012.98 1013.10 1013.22 1013.34 1013.50 1013.66 1013.78 1013.82 1013.86 1013.94 1014.06 1014.14 1014.22 1014.30 1014.38 1014.46 1014.54 1014.70
1005.54 1005.78 1006.06 1006.30 1006.50 1006.74 1006.90 1007.02 1007.02 1007.02 1006.98 1006.98 1006.98 1007.10 1007.26 1007.38 1007.46 1007.50 1007.62 1007.78 1007.94 1008.10 1008.22 1008.34 1008.54 1008.74 1008.90 1009.06 1009.22 1009.46 1009.62 1009.82 1010.06 1010.26 1010.50 1010.66 1010.86 1011.02 1011.14 1011.26 1011.34 1011.50 1011.62 1011.74 1011.86 1011.98 1012.10 1012.22 1012.34 1012.50 1012.66 1012.78 1012.86 1012.98 1013.10 1013.22 1013.42 1013.54 1013.62 1013.70 1013.78 1013.82 1013.90 1013.94 1014.02 1014.10 1014.22 1014.34 1014.46
1005.54 1005.78 1006.02 1006.26 1006.50 1006.70 1006.86 1006.90 1006.90 1006.86 1006.86 1006.82 1006.82 1006.90 1007.06 1007.26 1007.34 1007.38 1007.46 1007.58 1007.78 1007.94 1008.10 1008.26 1008.42 1008.58 1008.78 1008.90 1009.10 1009.30 1009.46 1009.62 1009.86 1010.06 1010.30 1010.50 1010.66 1010.82 1010.98 1011.10 1011.22 1011.30 1011.42 1011.54 1011.62 1011.74 1011.86 1011.98 1012.10 1012.22 1012.34 1012.54 1012.62 1012.70 1012.78 1012.98 1013.10 1013.22 1013.34 1013.42 1013.50 1013.54 1013.58 1013.62 1013.70 1013.82 1014.02 1014.18 1014.22
1005.58 1005.78 1005.98 1006.26 1006.50 1006.66 1006.78 1006.86 1006.78 1006.78 1006.74 1006.74 1006.70 1006.78 1006.94 1007.14 1007.30 1007.34 1007.38 1007.50 1007.66 1007.86 1008.02 1008.18 1008.34 1008.50 1008.62 1008.78 1008.98 1009.18 1009.34 1009.50 1009.66 1009.86 1010.06 1010.26 1010.46 1010.62 1010.78 1010.90 1011.02 1011.10 1011.22 1011.34 1011.42 1011.50 1011.62 1011.70 1011.78 1011.94 1012.06 1012.22 1012.34 1012.46 1012.54 1012.70 1012.78 1012.90 1013.02 1013.06 1013.18 1013.22 1013.26 1013.34 1013.46 1013.62 1013.78 1013.90 1013.98
1005.54 1005.78 1005.98 1006.22 1006.46 1006.62 1006.74 1006.78 1006.74 1006.70 1006.70 1006.74 1006.62 1006.66 1006.82 1007.02 1007.22 1007.34 1007.34 1007.42 1007.62 1007.78 1007.94 1008.06 1008.22 1008.38 1008.58 1008.74 1008.86 1009.02 1009.22 1009.34 1009.50 1009.66 1009.86 1010.02 1010.18 1010.34 1010.50 1010.62 1010.78 1010.90 1011.02 1011.14 1011.22 1011.34 1011.38 1011.46 1011.50 1011.66 1011.78 1011.94 1012.06 1012.22 1012.34 1012.42 1012.50 1012.62 1012.70 1012.78 1012.82 1012.90 1012.98 1013.06 1013.22 1013.34 1013.50 1013.62 1013.70
1005.54 1005.74 1005.94 1006.14 1006.34 1006.50 1006.62 1006.74 1006.74 1006.74 1006.74 1006.78 1006.70 1006.62 1006.70 1006.90 1007.10 1007.26 1007.34 1007.34 1007.50 1007.62 1007.78 1007.94 1008.06 1008.26 1008.50 1008.62 1008.74 1008.90 1009.06 1009.22 1009.34 1009.50 1009.62 1009.78 1009.90 1010.06 1010.22 1010.34 1010.50 1010.62 1010.78 1010.90 1011.02 1011.10 1011.18 1011.26 1011.34 1011.42 1011.54 1011.66 1011.78 1011.94 1012.06 1012.18 1012.26 1012.34 1012.46 1012.50 1012.58 1012.62 1012.74 1012.82 1012.94 1013.10 1013.26 1013.38 1013.42
1005.50 1005.70 1005.90 1006.06 1006.22 1006.34 1006.50 1006.58 1006.62 1006.70 1006.78 1006.78 1006.78 1006.70 1006.66 1006.78 1006.94 1007.14 1007.26 1007.26 1007.34 1007.50 1007.62 1007.78 1007.94 1008.10 1008.26 1008.50 1008.62 1008.74 1008.86 1009.02 1009.14 1009.26 1009.34 1009.50 1009.62 1009.78 1009.94 1010.06 1010.18 1010.34 1010.50 1010.62 1010.74 1010.82 1010.90 1011.02 1011.10 1011.22 1011.34 1011.46 1011.58 1011.70 1011.78 1011.94 1012.06 1012.14 1012.22 1012.30 1012.34 1012.42 1012.50 1012.58 1012.66 1012.82 1012.98 1013.10 1013.14
1005.34 1005.58 1005.78 1005.94 1006.06 1006.18 1006.34 1006.46 1006.50 1006.62 1006.66 1006.74 1006.70 1006.66 1006.62 1006.66 1006.78 1006.94 1007.10 1007.18 1007.18 1007.26 1007.42 1007.62 1007.78 1007.90 1008.06 1008.22 1008.42 1008.54 1008.66 1008.78 1008.90 1009.02 1009.14 1009.26 1009.34 1009.50 1009.66 1009.78 1009.90 1010.02 1010.18 1010.30 1010.38 1010.50 1010.62 1010.74 1010.86 1010.98 1011.14 1011.22 1011.34 1011.50 1011.58 1011.66 1011.78 1011.90 1012.02 1012.06 1012.18 1012.22 1012.26 1012.34 1012.42 1012.54 1012.62 1012.78 1012.82
1005.06 1005.34 1005.54 1005.74 1005.90 1006.06 1006.22 1006.34 1006.42 1006.50 1006.62 1006.62 1006.62 1006.58 1006.54 1006.62 1006.62 1006.78 1006.90 1007.02 1007.06 1007.10 1007.22 1007.42 1007.58 1007.74 1007.86 1008.02 1008.22 1008.34 1008.46 1008.50 1008.66 1008.82 1008.90 1009.06 1009.14 1009.26 1009.38 1009.50 1009.62 1009.78 1009.86 1009.98 1010.10 1010.22 1010.34 1010.46 1010.62 1010.78 1010.90 1011.06 1011.18 1011.26 1011.34 1011.46 1011.58 1011.70 1011.78 1011.90 1011.94 1011.98 1012.06 1012.14 1012.22 1012.26 1012.34 1012.46 1012.50
1004.66 1004.94 1005.22 1005.42 1005.62 1005.82 1005.98 1006.14 1006.26 1006.38 1006.46 1006.46 1006.46 1006.42 1006.42 1006.50 1006.50 1006.58 1006.66 1006.78 1006.86 1006.94 1007.06 1007.22 1007.34 1007.50 1007.66 1007.82 1007.98 1008.14 1008.22 1008.34 1008.50 1008.62 1008.70 1008.78 1008.90 1009.02 1009.10 1009.22 1009.34 1009.50 1009.62 1009.74 1009.86 1009.98 1010.10 1010.22 1010.34 1010.50 1010.66 1010.78 1010.90 1011.06 1011.14 1011.26 1011.42 1011.50 1011.58 1011.62 1011.66 1011.74 1011.78 1011.90 1011.94 1012.06 1012.14 1012.22 1012.26
1004.30 1004.58 1004.90 1005.14 1005.34 1005.54 1005.74 1005.94 1006.06 1006.22 1006.26 1006.22 1006.22 1006.22 1006.26 1006.34 1006.34 1006.34 1006.42 1006.50 1006.66 1006.78 1006.90 1007.02 1007.10 1007.26 1007.42 1007.58 1007.78 1007.94 1008.02 1008.14 1008.22 1008.34 1008.50 1008.58 1008.70 1008.78 1008.86 1008.98 1009.14 1009.30 1009.42 1009.54 1009.66 1009.78 1009.90 1010.06 1010.14 1010.26 1010.42 1010.54 1010.66 1010.78 1010.86 1011.02 1011.14 1011.26 1011.34 1011.38 1011.42 1011.46 1011.54 1011.62 1011.70 1011.78 1011.86 1011.94 1011.98
1003.98 1004.26 1004.58 1004.86 1005.06 1005.30 1005.50 1005.70 1005.86 1005.94 1006.02 1006.02 1006.06 1006.06 1006.10 1006.10 1006.14 1006.14 1006.22 1006.34 1006.50 1006.62 1006.70 1006.78 1006.94 1007.06 1007.18 1007.34 1007.50 1007.66 1007.82 1007.94 1008.06 1008.22 1008.26 1008.38 1008.50 1008.58 1008.66 1008.82 1008.98 1009.10 1009.22 1009.34 1009.46 1009.54 1009.66 1009.86 1009.94 1010.06 1010.18 1010.34 1010.42 1010.50 1010.62 1010.78 1010.90 1010.98 1011.06 1011.10 1011.18 1011.22 1011.30 1011.34 1011.38 1011.50 1011.58 1011.62 1011.70
1003.78 1003.98 1004.26 1004.54 1004.78 1005.06 1005.22 1005.38 1005.54 1005.66 1005.74 1005.78 1005.82 1005.86 1005.86 1005.90 1005.94 1005.98 1006.06 1006.22 1006.34 1006.42 1006.54 1006.62 1006.78 1006.90 1007.02 1007.14 1007.30 1007.50 1007.62 1007.78 1007.94 1008.06 1008.14 1008.26 1008.34 1008.42 1008.58 1008.70 1008.82 1008.90 1009.02 1009.06 1009.22 1009.34 1009.46 1009.62 1009.70 1009.82 1009.94 1010.06 1010.14 1010.26 1010.38 1010.50 1010.62 1010.70 1010.78 1010.86 1010.90 1010.98 1011.06 1011.06 1011.14 1011.22 1011.26 1011.34 1011.38
1003.58 1003.74 1003.94 1004.22 1004.50 1004.70 1004.90 1005.10 1005.30 1005.42 1005.50 1005.54 1005.58 1005.58 1005.62 1005.70 1005.74 1005.82 1005.94 1006.02 1006.14 1006.26 1006.38 1006.50 1006.62 1006.78 1006.90 1007.02 1007.14 1007.30 1007.46 1007.62 1007.78 1007.94 1008.06 1008.14 1008.22 1008.34 1008.46 1008.58 1008.62 1008.74 1008.78 1008.86 1009.06 1009.22 1009.34 1009.42 1009.46 1009.50 1009.62 1009.74 1009.78 1009.94 1010.14 1010.22 1010.34 1010.46 1010.50 1010.58 1010.66 1010.78 1010.78 1010.82 1010.90 1010.90 1010.98 1011.06 1011.06
1003.46 1003.54 1003.70 1003.94 1004.14 1004.42 1004.62 1004.82 1004.98 1005.10 1005.22 1005.26 1005.34 1005.38 1005.42 1005.50 1005.54 1005.62 1005.78 1005.86 1005.94 1006.06 1006.22 1006.34 1006.50 1006.62 1006.78 1006.90 1007.06 1007.18 1007.34 1007.46 1007.58 1007.74 1007.86 1008.02 1008.10 1008.22 1008.34 1008.42 1008.46 1008.50 1008.62 1008.78 1008.94 1009.06 1009.14 1009.22 1009.26 1009.30 1009.34 1009.38 1009.54 1009.74 1009.90 1009.94 1010.06 1010.18 1010.26 1010.34 1010.46 1010.50 1010.58 1010.62 1010.62 1010.70 1010.74 1010.82 1010.90
1003.34 1003.42 1003.54 1003.66 1003.94 1004.14 1004.34 1004.50 1004.70 1004.82 1004.94 1005.06 1005.14 1005.22 1005.26 1005.26 1005.34 1005.50 1005.62 1005.70 1005.78 1005.94 1006.06 1006.22 1006.34 1006.50 1006.66 1006.78 1006.94 1007.06 1007.22 1007.30 1007.42 1007.54 1007.70 1007.78 1007.98 1008.10 1008.18 1008.22 1008.30 1008.34 1008.42 1008.58 1008.78 1008.90 1008.98 1009.06 1009.10 1009.14 1009.18 1009.14 1009.22 1009.42 1009.58 1009.66 1009.78 1009.94 1010.06 1010.18 1010.26 1010.34 1010.46 1010.50 1010.50 1010.54 1010.62 1010.66 1010.74
1003.18 1003.26 1003.34 1003.50 1003.70 1003.90 1004.06 1004.22 1004.42 1004.58 1004.70 1004.78 1004.90 1004.98 1005.06 1005.18 1005.26 1005.34 1005.50 1005.54 1005.62 1005.78 1005.94 1006.06 1006.18 1006.30 1006.50 1006.66 1006.82 1006.94 1007.06 1007.14 1007.30 1007.38 1007.50 1007.62 1007.78 1007.90 1007.98 1008.06 1008.06 1008.10 1008.22 1008.42 1008.58 1008.66 1008.74 1008.78 1008.86 1008.90 1008.94 1008.98 1009.06 1009.18 1009.30 1009.38 1009.54 1009.70 1009.86 1009.98 1010.14 1010.22 1010.34 1010.38 1010.46 1010.54 1010.62 1010.70 1010.74
1003.02 1003.10 1003.22 1003.38 1003.50 1003.66 1003.86 1004.06 1004.22 1004.34 1004.46 1004.58 1004.70 1004.78 1004.90 1005.06 1005.18 1005.26 1005.34 1005.46 1005.58 1005.74 1005.86 1005.94 1006.02 1006.18 1006.34 1006.54 1006.66 1006.78 1006.90 1007.06 1007.18 1007.30 1007.42 1007.58 1007.66 1007.78 1007.90 1007.94 1007.94 1007.94 1008.10 1008.34 1008.58 1008.74 1008.82 1008.90 1008.90 1008.86 1008.82 1008.82 1008.78 1008.90 1009.02 1009.18 1009.30 1009.42 1009.58 1009.70 1009.90 1010.06 1010.22 1010.34 1010.46 1010.62 1010.78 1010.90 1010.90
1002.82 1002.98 1003.14 1003.26 1003.34 1003.50 1003.66 1003.86 1003.94 1004.10 1004.22 1004.38 1004.50 1004.66 1004.82 1004.98 1005.06 1005.18 1005.30 1005.42 1005.50 1005.62 1005.66 1005.78 1005.98 1006.18 1006.34 1006.46 1006.54 1006.70 1006.82 1006.98 1007.06 1007.18 1007.30 1007.46 1007.58 1007.62 1007.70 1007.78 1007.82 1007.94 1008.22 1008.62 1008.94 1009.18 1009.34 1009.42 1009.46 1009.50 1009.50 1009.46 1009.22 1008.98 1008.90 1008.94 1009.06 1009.26 1009.46 1009.62 1009.86 1010.10 1010.34 1010.50 1010.74 1010.94 1011.10 1011.18 1011.22
1002.70 1002.82 1002.98 1003.10 1003.26 1003.42 1003.54 1003.62 1003.78 1003.94 1004.10 1004.30 1004.42 1004.58 1004.74 1004.86 1004.98 1005.06 1005.18 1005.30 1005.38 1005.50 1005.58 1005.78 1005.98 1006.10 1006.22 1006.34 1006.50 1006.62 1006.78 1006.86 1006.94 1007.06 1007.22 1007.30 1007.42 1007.50 1007.54 1007.62 1007.66 1007.94 1008.46 1009.18 1009.34 1009.50 1009.62 1009.74 1009.78 1009.74 1009.70 1009.66 1009.62 1009.50 1009.22 1009.10 1009.10 1009.30 1009.58 1009.94 1010.38 1010.74 1010.90 1010.98 1011.22 1011.62 1011.78 1011.66 1011.66
1002.58 1002.70 1002.86 1003.02 1003.18 1003.30 1003.42 1003.54 1003.74 1003.90 1004.06 1004.22 1004.34 1004.46 1004.62 1004.70 1004.82 1004.94 1005.06 1005.22 1005.34 1005.50 1005.62 1005.82 1005.94 1006.06 1006.18 1006.34 1006.46 1006.58 1006.70 1006.78 1006.86 1006.94 1007.02 1007.10 1007.22 1007.34 1007.46 1007.54 1007.78 1008.34 1008.94 1009.38 1009.58 1009.66 1009.78 1009.86 1009.90 1009.90 1009.90 1009.82 1009.74 1009.66 1009.62 1009.66 1009.74 1009.98 1010.42 1011.02 1011.50 1011.70 1011.78 1011.94 1012.18 1012.26 1012.26 1012.22 1012.22
1002.46 1002.58 1002.74 1002.90 1003.06 1003.18 1003.34 1003.46 1003.62 1003.78 1003.94 1004.06 1004.22 1004.34 1004.46 1004.58 1004.70 1004.82 1004.98 1005.10 1005.30 1005.46 1005.62 1005.78 1005.90 1006.06 1006.22 1006.34 1006.46 1006.58 1006.62 1006.70 1006.78 1006.78 1006.90 1006.98 1007.14 1007.42 1007.66 1007.94 1008.42 1009.02 1009.42 1009.46 1009.62 1009.78 1009.82 1009.86 1009.82 1009.82 1009.86 1009.90 1009.78 1009.74 1009.90 1010.22 1010.50 1010.90 1011.50 1012.06 1012.34 1012.46 1012.58 1012.70 1012.78 1012.74 1012.78 1012.86 1012.78
1002.30 1002.50 1002.62 1002.78 1002.94 1003.06 1003.22 1003.38 1003.50 1003.70 1003.86 1003.98 1004.10 1004.22 1004.34 1004.50 1004.62 1004.78 1004.90 1005.06 1005.22 1005.34 1005.50 1005.62 1005.78 1005.94 1006.06 1006.22 1006.38 1006.54 1006.66 1006.78 1006.90 1006.98 1007.10 1007.30 1007.54 1007.94 1008.34 1008.74 1009.22 1009.50 1009.62 1009.66 1009.82 1009.86 1009.82 1009.78 1009.74 1009.74 1009.74 1009.78 1009.70 1009.74 1009.98 1010.50 1011.06 1011.62 1012.18 1012.66 1012.82 1012.90 1012.98 1013.06 1013.14 1013.22 1013.26 1013.26 1013.14
1002.18 1002.34 1002.50 1002.70 1002.82 1002.98 1003.14 1003.26 1003.38 1003.54 1003.70 1003.86 1003.98 1004.06 1004.22 1004.34 1004.50 1004.66 1004.78 1004.94 1005.14 1005.26 1005.38 1005.50 1005.62 1005.78 1005.98 1006.14 1006.42 1006.78 1007.14 1007.38 1007.62 1007.86 1008.02 1008.06 1008.22 1008.58 1009.06 1009.50 1009.62 1009.86 1010.06 1010.06 1010.02 1009.90 1009.78 1009.70 1009.62 1009.62 1009.62 1009.62 1009.50 1009.70 1010.22 1011.02 1011.58 1012.06 1012.50 1012.78 1013.02 1013.14 1013.22 1013.30 1013.46 1013.62 1013.66 1013.58 1013.42
1001.98 1002.18 1002.38 1002.58 1002.70 1002.86 1003.02 1003.18 1003.30 1003.46 1003.62 1003.74 1003.86 1003.98 1004.14 1004.26 1004.34 1004.50 1004.66 1004.86 1005.06 1005.22 1005.34 1005.50 1005.62 1005.82 1006.14 1006.58 1007.06 1007.70 1008.22 1008.34 1008.50 1008.62 1008.74 1008.78 1008.94 1009.22 1009.58 1009.86 1009.82 1010.06 1010.22 1010.18 1010.02 1009.82 1009.70 1009.62 1009.54 1009.50 1009.50 1009.54 1009.62 1010.02 1010.74 1011.50 1011.94 1012.34 1012.62 1012.86 1013.10 1013.34 1013.58 1013.78 1013.94 1014.06 1014.06 1013.90 1013.78
1001.78 1001.98 1002.22 1002.42 1002.62 1002.78 1002.90 1003.02 1003.22 1003.34 1003.46 1003.58 1003.74 1003.90 1004.02 1004.18 1004.30 1004.42 1004.58 1004.78 1004.98 1005.18 1005.34 1005.50 1005.70 1006.10 1006.66 1007.42 1008.18 1008.62 1008.86 1008.90 1009.06 1009.26 1009.46 1009.50 1009.58 1009.70 1009.90 1010.06 1010.18 1010.34 1010.38 1010.22 1009.98 1009.78 1009.58 1009.50 1009.46 1009.42 1009.42 1009.50 1009.90 1010.50 1011.18 1011.66 1012.10 1012.50 1012.82 1013.18 1013.38 1013.74 1014.10 1014.30 1014.34 1014.38 1014.38 1014.34 1014.22
1001.62 1001.82 1002.06 1002.26 1002.46 1002.62 1002.78 1002.90 1003.06 1003.22 1003.30 1003.42 1003.58 1003.74 1003.86 1004.02 1004.18 1004.34 1004.46 1004.62 1004.82 1005.06 1005.34 1005.70 1006.14 1006.70 1007.34 1008.10 1008.70 1009.02 1009.18 1009.34 1009.46 1009.62 1009.78 1009.94 1009.98 1010.06 1010.22 1010.42 1010.70 1010.78 1010.62 1010.34 1010.06 1009.70 1009.50 1009.34 1009.30 1009.26 1009.30 1009.62 1010.22 1010.82 1011.34 1011.74 1012.18 1012.62 1013.18 1013.66 1014.02 1014.30 1014.42 1014.50 1014.54 1014.62 1014.70 1014.70 1014.54
1001.38 1001.62 1001.82 1002.06 1002.22 1002.38 1002.58 1002.74 1002.90 1003.02 1003.14 1003.26 1003.42 1003.58 1003.70 1003.82 1003.94 1004.10 1004.22 1004.42 1004.70 1005.06 1005.58 1006.22 1006.90 1007.50 1008.02 1008.46 1008.78 1009.06 1009.34 1009.62 1009.82 1010.10 1010.34 1010.38 1010.50 1010.62 1010.78 1010.94 1011.14 1011.10 1010.90 1010.54 1010.14 1009.74 1009.42 1009.30 1009.22 1009.22 1009.34 1009.82 1010.42 1010.98 1011.42 1011.86 1012.42 1013.02 1013.58 1013.98 1014.30 1014.50 1014.66 1014.74 1014.78 1014.90 1014.98 1015.02 1014.90
1001.18 1001.34 1001.58 1001.78 1001.94 1002.14 1002.34 1002.50 1002.62 1002.78 1002.90 1003.06 1003.22 1003.34 1003.50 1003.62 1003.78 1003.90 1004.10 1004.50 1004.98 1005.54 1006.18 1006.86 1007.54 1008.06 1008.42 1008.66 1008.86 1009.22 1009.66 1010.10 1010.62 1010.90 1011.02 1011.06 1011.18 1011.26 1011.34 1011.34 1011.34 1011.30 1011.06 1010.78 1010.34 1009.90 1009.58 1009.46 1009.34 1009.34 1009.58 1010.06 1010.62 1011.06 1011.50 1012.06 1012.74 1013.34 1013.86 1014.22 1014.50 1014.74 1014.86 1014.98 1015.06 1015.18 1015.26 1015.34 1015.34
1000.94 1001.14 1001.34 1001.50 1001.74 1001.94 1002.10 1002.26 1002.42 1002.54 1002.70 1002.86 1003.02 1003.10 1003.22 1003.46 1003.78 1004.10 1004.54 1005.14 1005.70 1006.26 1006.90 1007.54 1008.06 1008.50 1008.74 1008.94 1009.30 1009.86 1010.46 1010.90 1011.34 1011.54 1011.54 1011.62 1011.62 1011.66 1011.62 1011.62 1011.58 1011.50 1011.30 1011.02 1010.62 1010.22 1009.98 1009.86 1009.74 1009.66 1009.82 1010.26 1010.82 1011.30 1011.74 1012.34 1013.02 1013.62 1014.06 1014.46 1014.74 1014.90 1015.02 1015.18 1015.30 1015.46 1015.58 1015.70 1015.78
Wind_Speed
14 12 11 9 8 6 5 4 5 5 6 6 5 5 6 8 9 9 10 11 11 11 11 12 13 12 10 10 11 11 11 12 12 12 12 12 11 11 11 10 10 9 9 9 9 8 8 8 7 6 6 5 6 6 6 5 6 6 7 7 7 7 7 9 9 10 10 10 8
14 14 12 10 9 7 6 5 5 6 6 6 6 7 8 9 9 9 10 11 11 10 10 10 11 11 11 12 12 12 12 12 13 13 12 12 12 12 11 10 10 10 10 10 9 8 8 8 7 6 6 5 5 6 6 6 7 7 7 8 7 6 6 8 9 9 9 9 8
13 13 12 11 10 8 7 6 7 9 10 9 8 9 9 10 9 9 9 9 10 10 9 9 10 10 11 12 11 11 12 13 13 13 12 12 12 12 11 11 11 10 10 10 10 9 8 8 8 7 6 6 6 6 6 6 6 7 8 9 7 6 6 7 7 7 7 6 7
12 12 12 12 12 11 9 8 10 12 12 11 10 11 11 10 9 9 8 8 10 10 9 9 9 10 10 11 11 11 12 13 13 13 12 12 12 12 12 11 11 11 11 11 11 10 10 9 7 6 6 7 8 8 7 6 6 6 7 8 6 6 7 7 6 6 5 6 6
12 11 11 11 12 11 10 10 12 13 12 11 11 11 11 11 10 9 9 8 9 9 9 10 10 9 10 11 12 12 13 14 13 13 12 12 12 12 12 12 12 11 11 11 11 11 10 10 7 6 6 7 7 7 7 7 8 7 6 6 6 6 6 7 6 6 5 5 5
11 11 11 10 10 9 9 10 13 14 13 12 13 13 12 11 10 10 10 10 10 10 10 10 10 10 10 11 11 12 12 13 13 12 12 12 12 12 12 12 12 12 11 11 12 11 11 10 7 6 6 6 7 7 8 9 8 8 7 6 6 6 6 7 6 6 6 6 7
12 11 11 10 10 9 8 10 13 14 14 13 15 16 15 13 12 12 13 12 11 10 10 9 10 10 10 11 11 11 11 12 12 12 13 12 12 12 13 13 13 13 12 12 12 11 11 10 8 7 6 6 6 7 8 8 8 8 8 8 7 6 7 8 6 6 7 9 10
11 11 11 11 10 9 8 9 12 14 14 13 15 17 17 15 15 15 15 13 12 11 11 9 11 12 12 12 11 11 11 12 12 12 12 12 12 13 13 13 13 13 13 13 12 12 11 9 8 7 7 6 6 7 8 9 9 10 10 10 8 7 7 7 7 7 8 10 11
10 10 10 10 10 9 8 9 12 14 14 14 16 17 17 16 17 17 16 14 12 12 11 11 12 13 13 13 12 11 11 11 12 12 12 12 13 13 13 13 13 13 13 12 12 12 12 9 8 7 7 7 7 7 8 10 11 11 11 11 9 8 8 8 8 9 9 10 11
11 10 10 10 10 9 8 9 11 13 15 16 17 17 16 16 17 17 16 13 12 12 12 12 12 13 13 13 12 12 11 11 11 12 13 13 13 14 14 13 14 13 13 12 12 12 12 10 9 9 9 8 9 9 10 10 11 12 12 9 9 9 10 9 9 10 10 11 12
12 11 11 10 10 9 8 8 9 11 13 15 17 17 15 14 15 15 15 14 13 13 13 12 12 12 12 12 12 12 11 11 11 12 12 13 14 14 15 14 14 14 14 13 12 11 11 10 10 11 11 10 10 10 10 11 12 13 13 11 11 11 12 11 11 11 11 11 12
12 12 11 11 11 10 9 8 8 9 11 14 16 16 14 12 14 14 14 15 13 13 12 12 12 12 12 11 12 12 12 12 12 12 12 13 14 14 15 15 15 15 14 14 12 11 10 11 12 12 12 11 10 10 11 12 12 13 13 13 12 12 13 13 13 12 11 12 12
12 12 11 11 11 10 9 8 7 7 9 12 15 14 13 10 12 13 14 15 13 12 11 11 12 12 12 11 12 12 12 12 12 12 12 13 13 14 14 14 15 15 14 14 13 12 11 12 13 13 13 13 11 11 11 13 13 14 14 14 14 14 14 15 14 13 12 12 13
12 12 12 12 11 10 9 8 7 7 8 10 12 12 11 9 9 11 13 14 13 12 11 11 11 11 11 12 12 13 13 13 13 13 13 13 13 14 14 14 14 14 14 13 13 13 13 13 14 14 14 14 14 13 13 13 14 14 15 15 15 15 15 15 15 14 13 13 14
12 12 13 13 12 11 10 9 8 7 8 9 9 9 8 7 7 9 11 13 13 12 11 11 11 11 12 13 13 14 14 14 14 14 14 14 14 14 14 14 14 14 14 13 13 14 14 15 15 15 15 15 15 15 14 14 14 15 15 16 16 17 16 16 15 14 14 14 14
12 13 13 14 13 13 12 11 9 9 9 9 9 9 8 6 6 8 10 13 13 13 12 13 12 12 12 13 14 14 14 14 15 15 15 15 15 15 15 14 14 14 14 14 14 14 14 15 15 15 15 16 16 15 15 15 15 15 16 16 17 17 17 16 15 15 15 15 15
13 14 15 15 16 16 15 14 12 11 12 12 12 11 10 7 7 7 9 12 13 13 14 15 14 13 13 13 13 14 14 14 15 15 15 16 16 16 15 15 15 15 15 15 15 15 15 14 14 14 15 15 15 15 15 15 15 15 16 16 16 16 16 16 15 15 15 15 16
16 16 17 18 18 18 18 17 16 15 15 16 15 14 12 9 8 8 10 12 13 15 16 16 15 14 14 14 14 13 14 14 15 15 16 16 16 16 16 16 16 15 15 15 16 16 16 15 15 14 14 14 15 15 15 15 15 15 16 16 16 16 16 16 16 15 15 16 16
18 18 19 20 20 20 20 20 18 18 18 18 17 16 14 11 9 9 11 12 14 15 16 16 15 15 15 15 15 14 13 14 15 16 16 16 16 16 16 16 16 16 16 16 17 17 16 16 15 14 14 14 14 14 14 15 15 15 16 16 16 16 16 16 16 16 15 16 16
20 20 21 21 21 21 21 21 20 19 19 18 19 18 16 13 11 11 12 13 14 15 16 16 16 15 15 15 15 15 14 13 15 16 16 16 16 16 17 17 17 17 17 17 17 17 17 16 16 15 15 14 14 14 15 15 15 15 16 15 16 16 17 17 16 16 16 16 16
21 21 21 21 21 21 21 21 20 20 20 20 20 19 16 13 11 12 13 14 14 14 15 16 16 16 15 15 16 15 14 13 14 15 16 16 16 17 17 17 17 17 17 17 17 17 17 17 16 16 15 15 15 15 15 15 15 16 16 15 16 16 17 17 17 17 17 16 16
20 20 21 21 21 21 21 21 21 21 21 21 20 18 16 14 12 12 12 13 13 14 15 15 16 16 16 16 16 15 14 13 13 14 15 15 16 16 16 15 16 16 16 16 16 17 17 17 17 16 16 15 16 16 16 16 16 16 16 17 17 17 17 17 17 17 17 17 16
18 19 20 20 21 21 21 21 21 21 21 20 19 18 16 14 13 12 11 12 12 13 13 13 14 15 15 15 16 15 15 14 13 14 14 14 15 15 15 14 15 15 16 15 16 16 16 16 17 17 16 16 17 17 17 17 16 16 17 17 18 18 18 17 17 17 17 17 16
17 17 18 17 20 21 21 21 21 21 21 20 19 18 16 15 13 12 11 11 12 12 12 11 12 13 14 14 15 15 15 14 14 14 14 14 14 14 14 13 14 14 15 14 14 14 14 14 15 15 16 16 16 17 17 17 17 17 17 17 18 18 17 17 17 17 17 17 16
16 16 16 17 19 20 20 21 21 21 20 20 19 18 16 15 13 12 11 11 11 11 11 11 11 11 11 12 13 14 14 15 14 14 14 14 14 14 13 13 13 13 12 11 13 15 15 14 13 14 14 15 16 16 16 16 17 17 17 17 17 17 17 17 17 17 17 17 16
15 16 16 17 19 20 21 21 21 21 20 20 19 17 16 14 13 12 11 11 11 11 11 11 11 10 10 11 11 12 13 13 14 14 14 14 14 14 13 12 12 11 10 11 14 16 17 17 16 15 14 14 15 15 15 15 16 16 16 16 16 15 15 15 16 16 15 15 15
16 15 16 16 18 19 20 21 21 20 20 19 18 17 16 14 12 12 12 11 11 11 11 10 10 10 9 9 11 12 12 12 12 13 14 14 14 14 14 13 12 10 10 12 14 16 18 19 19 18 16 14 14 14 14 14 14 15 15 15 14 14 14 14 15 15 14 13 13
16 15 15 16 17 19 20 20 20 20 20 19 18 17 15 13 12 12 12 11 11 11 10 10 9 8 7 8 10 11 12 12 12 12 13 13 14 14 14 13 12 11 11 13 15 17 18 20 21 21 19 16 14 13 13 13 12 12 12 12 13 13 14 13 13 12 12 11 11
16 15 15 15 16 17 18 19 19 19 19 18 17 16 15 13 13 12 12 11 12 11 10 9 8 7 7 8 10 11 11 12 11 11 12 12 13 13 14 13 13 12 11 11 10 10 11 12 14 16 16 16 13 12 12 12 12 11 11 11 11 11 12 11 10 9 8 8 8
15 15 14 14 15 16 16 17 18 18 17 16 16 15 15 14 13 12 12 12 12 11 10 8 8 8 9 10 10 10 11 11 11 11 11 12 13 13 13 13 13 10 6 1 4 6 7 7 7 7 9 11 11 11 11 12 11 11 10 9 8 7 6 6 5 4 5 5 5
15 14 14 14 14 14 15 15 16 16 15 14 15 15 14 14 14 13 12 12 11 9 9 8 10 11 11 11 10 10 10 10 11 11 12 13 13 13 13 13 13 6 4 14 14 14 13 13 11 10 9 8 7 8 9 10 9 8 5 2 4 7 8 7 9 9 10 9 8
15 14 14 13 14 14 14 14 14 14 14 14 14 14 14 14 14 12 11 10 9 9 9 9 11 12 11 10 10 9 10 11 11 12 12 13 13 13 12 11 7 2 10 16 15 14 13 12 11 9 8 5 3 4 6 7 7 6 6 9 13 14 13 12 11 11 11 11 10
15 14 14 13 13 13 13 13 13 13 13 13 14 14 14 14 12 11 10 9 8 9 10 10 11 11 11 9 9 9 10 11 12 12 12 12 10 8 5 3 3 8 13 16 15 14 13 11 10 8 6 4 1 1 2 4 5 6 8 11 12 13 13 12 11 11 11 11 10
15 14 14 13 13 13 13 13 12 12 13 13 13 14 14 13 13 12 11 9 8 8 9 9 9 9 9 9 8 7 7 6 6 6 5 4 3 3 4 7 7 11 16 18 16 14 12 11 9 7 5 3 2 4 7 9 8 10 11 12 11 11 12 12 12 12 12 10 9
15 14 14 13 13 13 13 13 13 13 13 13 14 14 14 13 13 12 10 9 8 8 8 8 7 8 7 6 4 1 3 6 7 8 9 9 9 9 10 8 8 13 17 17 15 13 11 9 7 5 3 2 4 8 12 13 12 12 12 12 12 13 13 13 13 12 11 10 10
15 14 14 13 13 13 13 13 14 14 14 14 14 14 13 12 11 10 9 8 8 8 8 8 7 7 5 1 5 9 12 12 12 13 12 12 11 11 10 8 9 13 16 16 15 12 10 7 4 3 3 4 7 10 12 12 12 12 13 13 13 15 15 14 14 13 12 11 11
15 15 14 14 14 14 14 14 14 15 15 15 14 14 13 13 11 9 9 8 8 9 9 8 6 3 3 7 9 10 11 12 12 11 11 11 10 10 10 10 11 13 14 16 15 12 8 5 3 3 5 7 10 11 12 11 10 11 12 13 14 14 13 12 12 13 13 14 13
16 16 15 15 14 14 14 14 14 15 15 15 14 13 12 12 11 10 9 9 9 9 8 6 2 5 10 13 11 11 12 13 12 12 11 10 11 11 11 12 12 12 13 16 14 11 7 4 5 6 8 11 12 12 10 10 10 11 12 12 12 11 10 9 9 11 14 17 19
16 16 16 15 15 15 15 15 15 15 15 15 14 13 12 11 11 10 9 8 7 5 3 2 6 10 12 12 11 12 14 15 16 15 14 13 14 14 13 12 11 11 12 16 15 11 8 7 10 12 13 14 13 11 10 10 12 12 12 10 10 10 10 9 9 10 13 18 22
17 16 16 16 16 15 15 15 15 15 14 14 14 14 13 11 10 8 6 3 3 5 8 10 12 12 11 10 12 14 16 17 17 16 15 15 15 15 14 12 11 11 13 16 16 14 12 11 12 14 15 14 12 10 10 11 12 12 11 9 8 8 9 9 9 10 11 14 18
16 16 16 16 16 15 15 15 15 14 14 13 13 12 10 8 5 2 3 7 10 12 12 13 13 13 13 13 15 17 18 18 16 15 14 14 14 13 13 12 12 13 14 17 19 19 17 14 13 14 14 13 12 11 10 11 12 12 11 9 8 8 8 9 9 9 10 12 13
Wind_Direction
164 164 164 162 162 161 160 154 144 139 138 141 152 166 184 202 186 172 163 164 174 179 176 165 169 174 176 170 172 169 162 157 161 166 171 176 180 180 179 177 174 174 175 175 174 175 177 177 176 177 179 183 185 186 186 185 178 176 178 184 186 185 185 187 194 198 201 203 205
160 159 157 156 156 156 156 155 152 151 153 156 164 175 186 199 190 177 167 166 172 176 175 166 165 165 167 170 173 169 163 160 165 170 175 180 181 181 180 178 177 176 176 176 176 177 179 179 178 179 181 185 186 189 191 191 183 180 182 188 190 188 187 192 198 200 200 203 206
155 153 152 151 152 154 157 160 163 164 165 166 171 178 186 194 192 183 173 168 167 167 167 165 162 161 163 169 174 171 166 164 168 173 178 182 182 182 180 180 179 179 179 179 178 180 180 179 180 181 182 185 189 192 195 196 188 184 187 193 194 192 192 200 201 200 200 204 205
153 150 149 149 151 154 158 164 168 170 170 169 173 179 186 190 191 186 178 168 162 161 163 166 163 161 163 170 175 174 170 167 171 175 180 183 183 182 182 181 181 181 182 182 182 182 182 180 182 183 184 185 189 193 195 195 190 190 194 198 197 196 197 203 202 200 200 206 205
153 151 149 148 150 154 160 167 171 172 173 171 174 180 187 190 189 185 178 170 166 165 165 167 166 165 166 171 176 176 173 170 173 177 180 183 183 183 183 183 183 183 184 185 184 184 183 180 184 187 188 187 191 195 196 191 190 193 198 201 201 201 201 205 204 202 202 206 207
154 152 150 147 149 154 162 170 173 175 175 174 177 182 187 189 185 181 176 173 170 168 167 170 171 169 168 171 177 178 175 173 176 178 180 182 183 184 185 185 186 186 186 187 186 185 183 182 187 190 191 190 195 197 195 189 190 195 200 203 205 205 205 206 206 204 204 208 210
155 153 152 151 152 156 164 173 175 177 178 177 179 183 186 186 182 178 175 173 171 171 172 175 176 173 170 172 178 179 177 175 178 179 180 181 183 185 186 188 188 189 189 189 187 186 185 185 189 192 193 192 196 197 195 190 191 195 200 204 205 205 205 208 208 206 206 209 212
154 154 154 154 155 158 165 174 177 180 181 181 182 184 186 184 180 177 176 175 175 175 177 180 180 177 174 174 178 178 176 175 178 180 181 181 183 185 188 189 190 191 191 190 189 188 187 188 192 194 194 194 197 197 195 191 192 196 201 205 206 206 206 209 208 208 208 210 213
153 154 154 154 157 160 167 177 182 184 184 183 183 184 184 181 179 178 178 178 177 176 177 180 181 179 177 176 177 177 176 175 178 180 182 182 184 186 189 190 192 193 194 193 191 189 188 189 194 196 195 195 197 197 195 191 194 199 203 207 207 208 209 211 209 209 210 211 214
152 152 153 155 160 164 171 181 190 191 188 185 185 184 182 179 178 179 180 180 176 175 176 179 180 180 180 180 180 179 177 175 178 180 182 184 185 188 190 192 193 195 196 196 194 192 190 191 196 199 199 198 198 198 197 193 197 201 205 209 208 208 209 212 211 210 211 213 215
150 151 154 157 163 168 176 188 198 199 195 188 186 183 180 177 177 179 180 180 176 175 176 178 179 180 182 184 183 182 181 179 178 180 182 185 187 189 191 193 194 195 196 197 195 194 194 195 199 200 201 200 199 199 198 197 199 203 207 211 210 209 211 213 212 212 213 215 217
148 150 153 158 164 170 180 194 204 207 202 193 187 182 178 176 177 178 179 178 176 177 178 179 179 181 183 186 187 187 186 184 181 180 182 185 188 190 192 194 195 196 197 197 196 196 197 199 201 201 202 201 201 201 201 200 202 205 209 212 211 212 213 214 214 214 215 216 218
146 148 152 157 164 172 183 198 207 211 207 198 187 180 175 175 178 178 178 176 177 179 182 183 182 183 185 189 190 191 191 190 186 184 184 185 187 190 192 194 195 196 197 198 197 197 199 201 201 202 202 202 203 204 203 201 203 206 210 213 213 214 215 216 215 215 216 217 219
146 149 152 157 164 173 185 199 207 210 208 203 190 181 174 174 180 180 178 175 177 181 185 187 186 187 189 191 192 193 194 194 192 190 189 188 189 190 192 195 195 196 197 199 199 199 200 202 202 202 203 203 205 205 205 203 205 207 210 212 214 216 217 218 216 215 216 217 221
149 152 155 159 166 175 186 197 204 206 206 206 200 192 183 177 182 183 181 176 179 183 187 189 190 191 192 193 193 193 194 195 195 195 195 194 192 192 193 195 196 196 198 199 200 202 202 203 203 203 204 205 206 207 206 206 207 209 211 213 215 217 218 219 218 216 216 217 221
155 157 161 165 172 179 187 194 199 202 203 207 211 210 204 192 188 188 185 179 181 185 189 192 192 193 194 194 193 193 194 196 197 198 199 199 198 197 196 197 197 198 199 200 202 204 205 206 205 205 205 206 208 208 209 208 210 212 214 216 217 218 219 220 218 218 217 218 221
162 165 169 174 179 184 188 193 196 198 200 205 212 216 217 208 197 193 191 185 185 187 191 193 193 193 194 195 194 193 194 196 198 199 201 202 201 201 201 201 201 201 201 202 203 205 207 209 208 208 207 208 209 210 211 211 212 214 216 218 219 220 221 221 220 219 219 220 222
169 172 176 181 185 188 191 194 196 198 200 203 209 215 218 215 204 198 195 193 190 190 191 193 193 193 193 194 194 194 195 196 198 200 201 202 203 203 204 205 205 205 205 206 207 208 209 210 210 210 210 210 212 212 213 213 215 217 218 220 221 222 223 223 222 221 221 222 225
175 177 181 185 188 191 194 196 198 199 200 202 207 212 216 216 208 200 197 198 195 193 191 192 193 193 193 193 194 195 196 197 198 200 201 202 203 204 206 207 208 209 209 210 211 212 212 212 211 212 212 213 214 215 215 216 218 219 220 222 223 225 226 226 225 224 224 224 226
179 180 183 186 190 192 195 197 199 199 200 202 207 211 214 216 209 200 197 198 197 195 192 192 193 193 193 193 194 195 197 198 199 200 202 203 204 205 207 208 210 211 212 213 215 216 216 215 214 214 214 215 216 217 218 218 220 221 222 224 225 226 227 228 227 227 227 226 227
182 183 185 187 189 192 195 196 198 200 201 204 207 211 213 215 209 201 195 194 195 194 193 193 193 193 193 193 194 196 197 199 199 201 202 204 205 206 208 208 210 212 214 215 217 218 219 219 218 217 217 217 218 219 219 220 222 223 224 225 227 228 228 229 229 229 229 229 229
184 184 185 187 189 192 194 195 197 200 203 206 209 212 214 215 209 201 193 190 190 191 193 193 193 193 193 192 194 196 198 200 201 202 204 205 207 209 209 210 211 212 214 216 217 219 220 221 221 220 220 220 221 221 222 222 223 224 226 227 228 229 229 230 230 230 230 230 230
188 185 185 187 189 191 193 195 198 201 205 208 211 214 215 215 210 201 193 187 187 189 190 191 192 193 193 193 194 196 198 201 203 204 206 207 209 210 211 211 212 213 215 216 217 219 220 221 222 222 222 223 224 224 224 225 225 226 227 228 229 230 230 230 230 230 231 231 231
192 187 185 186 189 191 193 196 199 202 206 209 212 215 216 215 210 203 196 190 188 188 189 190 191 193 193 194 195 197 199 202 204 206 208 209 211 212 212 213 214 215 216 217 216 216 217 219 221 223 223 224 225 226 226 226 227 228 229 230 230 231 232 232 231 231 231 231 231
195 191 187 186 188 191 193 196 200 203 206 210 212 214 215 214 210 205 200 195 192 190 190 191 192 193 195 196 197 199 200 202 205 207 208 210 211 212 213 214 216 217 218 218 217 215 214 215 217 220 222 224 225 227 228 228 228 229 230 231 231 232 233 233 232 232 231 231 230
197 194 191 188 189 191 194 197 200 203 206 209 212 213 214 213 211 208 204 201 198 196 194 194 194 195 196 199 200 201 203 205 206 207 209 210 212 213 214 215 217 218 218 218 217 215 214 214 215 217 220 223 224 226 227 228 227 228 229 230 230 231 232 233 234 233 231 231 230
198 196 194 191 190 192 194 198 201 204 206 209 211 212 213 212 211 209 207 206 204 202 200 200 199 198 199 202 204 205 207 208 208 209 210 211 212 212 214 216 217 218 217 216 214 214 214 215 215 215 217 221 223 224 225 226 226 226 227 228 229 229 230 232 234 234 234 233 233
198 197 195 192 191 193 195 197 200 203 206 208 210 211 211 211 210 209 209 209 208 207 207 208 206 204 204 206 208 210 211 211 211 212 212 212 213 213 214 216 217 217 215 212 211 211 212 213 214 214 214 216 220 222 224 225 225 225 225 226 229 230 231 232 234 236 238 240 240
199 198 196 193 192 193 194 197 200 203 205 207 208 209 210 210 210 209 209 209 209 209 210 212 212 211 211 213 214 215 215 215 215 215 215 215 215 216 216 218 219 218 215 209 207 211 218 225 227 225 221 217 219 221 223 225 226 226 227 228 228 230 232 235 239 243 249 254 257
199 198 197 195 194 194 194 196 199 201 203 206 207 208 209 209 209 209 208 208 208 209 210 210 212 213 214 216 217 217 218 219 219 219 219 219 219 220 220 220 220 218 213 52 25 13 359 345 327 303 280 265 255 242 232 228 228 228 229 231 238 246 252 255 268 292 315 322 315
200 199 198 197 196 195 196 196 198 200 202 204 206 207 208 209 209 209 208 207 207 208 208 208 210 213 215 215 216 218 219 221 221 221 222 222 222 223 223 223 223 214 56 35 23 15 9 3 355 347 338 326 296 270 256 247 243 242 246 291 21 26 26 29 36 30 21 14 8
201 200 199 199 199 198 198 197 198 199 201 203 205 207 208 209 210 209 208 207 207 207 207 207 210 213 215 216 217 218 220 221 222 224 224 224 225 226 228 231 230 29 38 32 22 12 3 353 347 343 341 337 310 284 279 283 288 306 345 20 33 36 36 36 33 29 25 23 16
200 200 200 200 201 200 200 199 199 200 201 203 205 207 209 210 210 210 209 208 207 206 207 208 210 212 214 215 217 219 221 223 225 226 227 229 233 239 251 283 29 33 27 20 13 4 353 343 339 338 339 342 343 23 15 353 351 10 31 43 44 45 45 45 40 37 33 29 24
200 200 201 201 201 202 202 202 202 202 204 205 207 208 209 210 210 211 211 210 209 208 208 209 210 211 213 213 215 220 227 238 248 261 275 295 312 354 24 34 44 30 18 10 3 354 346 339 339 343 351 2 81 88 77 65 62 65 67 66 58 52 50 49 45 40 36 32 33
199 200 201 201 202 203 203 204 205 206 207 209 210 211 211 211 211 211 211 210 209 211 212 213 212 213 213 213 217 291 1 7 14 17 19 24 42 52 54 44 45 30 18 4 355 348 343 341 345 357 22 68 89 85 81 78 78 78 77 74 65 57 51 49 47 42 37 34 38
200 201 201 202 203 203 204 206 207 209 210 212 213 213 213 212 212 212 211 209 210 212 214 215 215 214 213 189 53 46 42 38 41 41 42 45 55 60 59 44 37 25 14 358 351 346 344 345 357 34 88 107 90 84 84 86 84 81 77 73 68 61 55 50 48 44 40 38 40
202 202 203 203 204 204 205 206 208 210 212 213 214 214 214 214 214 213 211 209 210 213 215 216 213 193 96 68 61 58 56 55 56 55 53 51 55 57 54 43 30 17 5 355 349 346 347 358 36 95 111 103 90 89 91 94 90 82 74 68 67 66 64 60 55 50 47 44 44
203 204 204 205 205 205 206 206 208 210 212 213 214 214 214 214 214 213 211 209 210 213 215 216 179 82 78 81 80 72 62 56 54 51 49 47 49 49 48 44 30 15 1 354 351 351 1 41 80 98 101 96 95 97 99 97 91 85 81 77 74 71 69 66 61 56 51 48 47
205 205 205 206 206 206 206 206 208 210 211 212 212 212 212 212 213 212 210 208 208 203 183 100 75 78 84 92 86 74 63 55 50 47 44 43 45 46 46 45 32 18 5 0 360 7 29 71 91 97 97 96 100 102 101 95 92 90 90 89 85 79 72 67 64 59 54 50 50
205 205 205 206 207 207 207 208 208 209 210 210 210 210 210 210 212 211 204 179 111 81 75 75 78 81 84 85 78 69 62 57 53 50 48 48 49 48 47 46 36 24 15 11 14 23 41 70 90 98 99 100 101 102 100 97 96 95 94 91 89 84 78 71 67 62 57 52 50
206 206 206 207 208 208 208 209 209 209 208 208 211 213 213 209 200 176 105 82 82 82 82 83 82 80 78 75 72 69 67 65 61 57 55 54 52 50 47 45 39 32 26 23 27 32 41 55 75 90 98 101 101 100 99 99 99 98 97 94 92 89 84 78 72 66 60 55 51